Weather History for KJLN - May, 2014

Change the Weather History Date:

Wednesday, May 28, 2014

  Actual Average Record
Temperature  
Mean Temperature 71 °F 70 °F  
Max Temperature 83 °F 81 °F 92 °F (1983)
Min Temperature 59 °F 60 °F 43 °F (1984)
Degree Days  
Heating Degree Days 0 1  
Month to date heating degree days 103 63  
Since 1 July heating degree days 4881 4066  
Cooling Degree Days 6 6  
Month to date cooling degree days 163 107  
Year to date cooling degree days 186 161  
Growing Degree Days 20 (Base 50)    
Moisture  
Dew Point 62 °F    
Average Humidity 77    
Maximum Humidity 100    
Minimum Humidity 54    
Precipitation  
Precipitation 0.03 in 0.18 in 1.38 in (1977)
Month to date precipitation 4.77 5.16  
Year to date precipitation 8.75 17.40  
Sea Level Pressure  
Sea Level Pressure 29.94 in    
Wind  
Wind Speed 2 mph (ESE)    
Max Wind Speed 10 mph    
Max Gust Speed 19 mph    
Visibility 6 miles    
Events Fog , Rain    
T = Trace of Precipitation, MM = Missing Value Source: NWS Daily Summary

Daily Weather History Graph

Daily Weather History Graph

Search for Another Location

Airport or City:

Trip Planner

Search our weather history database for the weather conditions in past years. The results will help you decide how hot, cold, wet, or windy it might be!

Date:

Astronomy

May. 28, 2014 Rise Set
Actual Time 6:01 AM CDT 8:29 PM CDT
Civil Twilight 5:31 AM CDT 8:59 PM CDT
Nautical Twilight 4:53 AM CDT 9:37 PM CDT
Astronomical Twilight 4:12 AM CDT 10:18 PM CDT
Moon 6:06 AM CDT (5/28) 8:30 PM CDT (5/28)
Length of Visible Light 15h 28m
Length of Day
14h 28m
Waning Crescent, 0% of the Moon is Illuminated
May 28
Waning Crescent
May 28
New
Jun 5
First Quarter
Jun 12
Full
Jun 19
Last Quarter

Hourly Weather History & Observations

Time (CDT) Temp. Heat Index Dew Point Humidity Pressure Visibility Wind Dir Wind Speed Gust Speed Precip Events Conditions
12:53 AM 64.0 °F - 62.1 °F 93% 29.94 in 10.0 mi NW 3.5 mph - N/A   Clear
1:53 AM 62.1 °F - 61.0 °F 96% 29.93 in 10.0 mi Calm Calm - N/A   Clear
2:38 AM 63.0 °F - 60.1 °F 90% 29.95 in 1.8 mi Calm Calm - N/A   Clear
2:44 AM 60.1 °F - 60.1 °F 100% 29.95 in 0.5 mi Calm Calm - N/A Fog Fog
2:53 AM 61.0 °F - 60.1 °F 97% 29.93 in 0.5 mi Calm Calm - N/A Fog Fog
3:15 AM 60.1 °F - 60.1 °F 100% 29.95 in 1.0 mi Calm Calm - N/A   Clear
3:21 AM 60.1 °F - 60.1 °F 100% 29.95 in 0.5 mi Calm Calm - N/A Fog Fog
3:28 AM 60.1 °F - 59.0 °F 96% 29.95 in 0.5 mi Calm Calm - N/A Fog Fog
3:36 AM 60.1 °F - 59.0 °F 96% 29.95 in 0.8 mi ESE 3.5 mph - N/A   Mist
3:42 AM 60.1 °F - 59.0 °F 96% 29.95 in 1.2 mi Calm Calm - N/A   Partly Cloudy
3:46 AM 60.1 °F - 60.1 °F 100% 29.95 in 3.0 mi Calm Calm - N/A   Partly Cloudy
3:53 AM 60.1 °F - 60.1 °F 100% 29.93 in 4.0 mi Calm Calm - N/A   Partly Cloudy
4:33 AM 60.1 °F - 60.1 °F 100% 29.95 in 1.8 mi Calm Calm - N/A   Partly Cloudy
4:45 AM 61.0 °F - 60.1 °F 97% 29.94 in 3.0 mi East 3.5 mph - N/A   Partly Cloudy
4:53 AM 60.1 °F - 60.1 °F 100% 29.93 in 5.0 mi Calm Calm - N/A   Partly Cloudy
5:53 AM 60.1 °F - 59.0 °F 96% 29.94 in 7.0 mi ESE 3.5 mph - N/A   Clear
6:53 AM 62.1 °F - 61.0 °F 96% 29.96 in 7.0 mi Calm Calm - N/A   Clear
7:53 AM 66.0 °F - 63.0 °F 90% 29.96 in 10.0 mi ESE 3.5 mph - N/A   Clear
8:53 AM 69.1 °F - 64.0 °F 84% 29.96 in 10.0 mi ESE 5.8 mph - N/A   Clear
9:53 AM 71.1 °F - 62.1 °F 73% 29.97 in 10.0 mi Calm Calm - N/A   Clear
10:53 AM 75.0 °F - 64.0 °F 69% 29.97 in 10.0 mi Calm Calm - N/A   Clear
11:53 AM 78.1 °F - 64.9 °F 64% 29.98 in 10.0 mi Variable 5.8 mph - N/A   Scattered Clouds
12:04 PM 77.0 °F - 64.9 °F 66% 30.01 in 10.0 mi NNE 6.9 mph - N/A   Mostly Cloudy
1:53 PM 81.0 °F 82.2 °F 63.0 °F 54% 29.96 in 10.0 mi Variable 3.5 mph - N/A   Mostly Cloudy
2:53 PM 80.1 °F 81.5 °F 63.0 °F 56% 29.94 in 10.0 mi Variable 3.5 mph - N/A   Scattered Clouds
3:53 PM 77.0 °F - 66.0 °F 69% 29.94 in 5.0 mi SE 5.8 mph - 0.02 in Rain Rain
5:53 PM 78.1 °F - 66.0 °F 66% 29.91 in 10.0 mi SSE 3.5 mph - N/A   Clear
6:53 PM 77.0 °F - 66.9 °F 71% 29.89 in 10.0 mi SSE 6.9 mph - N/A   Clear
7:53 PM 75.0 °F - 66.0 °F 73% 29.90 in 10.0 mi SE 4.6 mph - N/A   Clear
8:53 PM 71.1 °F - 66.9 °F 87% 29.91 in 10.0 mi Calm Calm - N/A   Clear
9:53 PM 69.1 °F - 66.0 °F 90% 29.93 in 10.0 mi NW 3.5 mph - N/A   Clear
10:53 PM 68.0 °F - 66.0 °F 93% 29.93 in 10.0 mi Calm Calm - N/A   Mostly Cloudy
11:53 PM 66.9 °F - 64.9 °F 93% 29.92 in 10.0 mi Calm Calm - N/A   Clear